This is the latest recevied weather packets stored in our database for station/object KK7KHO. If no packets are shown the sender has not sent any weather packets the latest 10 day(s).
| Time | Temp. | Humidity | Pressure | Rain* | Wind** | Luminosity | Snow |
|---|---|---|---|---|---|---|---|
| 1777497478 | 17.78° C | 70% | 1023.1 hPa | 0 mm | - | 633 W/m² | - |
| 1777497175 | 17.78° C | 67% | 1023.3 hPa | 0 mm | - | 640 W/m² | - |
| 1777496872 | 17.78° C | 67% | 1023.3 hPa | 0 mm | - | 646 W/m² | - |
| 1777496568 | 17.22° C | 68% | 1023.3 hPa | 0 mm | - | 649 W/m² | - |
| 1777496264 | 17.22° C | 69% | 1023.4 hPa | 0 mm | - | 652 W/m² | - |
| 1777495961 | 17.22° C | 69% | 1023.3 hPa | 0 mm | - | 652 W/m² | - |
| 1777495657 | 17.22° C | 67% | 1023.5 hPa | 0 mm | - | 655 W/m² | - |
| 1777495353 | 17.22° C | 68% | 1023.4 hPa | 0 mm | - | 659 W/m² | - |
| 1777495050 | 17.78° C | 67% | 1023.3 hPa | 0 mm | - | 662 W/m² | - |
| 1777494747 | 17.22° C | 68% | 1023.5 hPa | 0 mm | - | 664 W/m² | - |
| 1777494445 | 16.67° C | 69% | 1023.6 hPa | 0 mm | - | 665 W/m² | - |
| 1777494141 | 16.67° C | 69% | 1023.5 hPa | 0 mm | - | 667 W/m² | - |
| 1777493838 | 17.22° C | 70% | 1023.6 hPa | 0 mm | - | 666 W/m² | - |
| 1777493536 | 16.67° C | 69% | 1023.7 hPa | 0 mm | - | 668 W/m² | - |
| 1777493234 | 17.22° C | 70% | 1023.6 hPa | 0 mm | - | 669 W/m² | - |
| 1777492929 | 17.22° C | 69% | 1023.8 hPa | 0 mm | - | 670 W/m² | - |
| 1777492626 | 16.67° C | 71% | 1023.8 hPa | 0 mm | - | 669 W/m² | - |
| 1777492321 | 16.67° C | 71% | 1023.6 hPa | 0 mm | - | 671 W/m² | - |
| 1777492019 | 16.11° C | 71% | 1023.8 hPa | 0 mm | - | 665 W/m² | - |
| 1777491715 | 16.67° C | 73% | 1023.8 hPa | 0 mm | - | 665 W/m² | - |
| 1777491413 | 16.67° C | 70% | 1023.9 hPa | 0 mm | - | 665 W/m² | - |
| 1777491110 | 16.11° C | 72% | 1023.8 hPa | 0 mm | - | 662 W/m² | - |
| 1777490805 | 16.67° C | 71% | 1023.8 hPa | 0 mm | - | 658 W/m² | - |
| 1777490502 | 16.67° C | 73% | 1023.8 hPa | 0 mm | - | 657 W/m² | - |
| 1777490198 | 16.11° C | 72% | 1023.9 hPa | 0 mm | - | 652 W/m² | - |
* Rain latest hour (hover to see other rain measurements)
** Current wind speed in m/s (hover to see current wind gust speed)